Regional Weather Roundup
Issued by NWS Green Bay, WI

Home | Current Version | Previous Version | Graphics & Text | Print | Product List | Glossary Off
Versions: 1 2 3 4 5 6 7 8 9 10 11 12 13 14 15 16 17 18 19 20 21 22 23 24 25 26 27 28 29 30 31 32 33 34 35 36 37 38 39 40 41 42 43 44 45 46 47 48 49 50

000
ASUS43 KGRB 281311
RWRGRB

NORTH-CENTRAL AND NORTHEAST WISCONSIN REGIONAL WEATHER ROUNDUP
NATIONAL WEATHER SERVICE GREEN BAY WI
800 AM CDT THU MAY 28 2015

WIZ005-009-010>012-018-019-281400-
NORTH CENTRAL WISCONSIN

CITY           SKY/WX    TMP DP  RH WIND       PRES   REMARKS
IRONWOOD       SUNNY     57  55  94 E3        30.08F
MANITOWISH WTR SUNNY     59  58  97 CALM      30.13S
ARBOR VITAE    SUNNY     62  58  88 S3        30.13S
EAGLE RIVER    SUNNY     60  56  88 CALM      30.14F
LAND O LAKES   SUNNY     61  56  83 CALM      30.15F
RHINELANDER    SUNNY     60  56  86 CALM      30.15S
PHILLIPS       SUNNY     62  59  88 CALM      30.11F
ANTIGO         SUNNY     61  58  88 CALM      30.15F
TOMAHAWK       SUNNY     59  57  94 CALM      30.14F
MERRILL        SUNNY     59  57  94 CALM      30.14F
$$

WIZ013-073-281400-
NORTHEAST WISCONSIN

CITY           SKY/WX    TMP DP  RH WIND       PRES   REMARKS
IRON MOUNTAIN  MOSUNNY   58  54  86 SE7       30.15F
MARINETTE      SUNNY     63  55  77 CALM      30.15S
OCONTO         SUNNY     62  60  94 CALM      30.15S
$$

WIZ017-030-035>037-045-281400-
CENTRAL WISCONSIN

CITY           SKY/WX    TMP DP  RH WIND       PRES   REMARKS
MEDFORD        SUNNY     61  58  91 S5        30.13S
WAUSAU         SUNNY     62  58  86 E5        30.12F
MOSINEE        NOT AVBL
MARSHFIELD     SUNNY     63  58  83 SW5       30.14R
WISC RAPIDS    SUNNY     64  59  83 SW6       30.15R
STEVENS POINT  SUNNY     61  58  91 CALM      30.14F
WAUPACA        SUNNY     63  61  95 CALM      30.15R
SHAWANO        SUNNY     62  61  96 CALM      30.15F
CLINTONVILLE   SUNNY     61  61 100 CALM      30.14F
$$

WIZ038-039-048-051-281400-
FOX VALLEY

CITY           SKY/WX    TMP DP  RH WIND       PRES   REMARKS
NWS GREEN BAY  SUNNY     66  59  78 CALM      30.15S
APPLETON       SUNNY     66  61  82 S5        30.15F
OSHKOSH        SUNNY     68  60  75 S6        30.14F
FOND DU LAC    SUNNY     68  59  73 SW9       30.16S
$$

WIZ022-050-052-281400-
EAST CENTRAL WISCONSIN

CITY           SKY/WX    TMP DP  RH WIND       PRES   REMARKS
STURGEON BAY   SUNNY     61  57  88 CALM      30.19S
MANITOWOC      SUNNY     61  57  87 CALM      30.16F
SHEBOYGAN      SUNNY     70  61  73 SW6       30.15S
$$

LMZ563-521-522-541>543-281400-
LAKESHORE

STATION/POSITION TIME  TEMP    WIND        PRES    VSBY  WAVE
                       AIR SEA DIR/SP/G                  HT/PER
                 (UTC) (F)     (DEG/KT/KT) (MB)    (MI)  (FT/S)
SHEBOYGAN LKSHOR 1300   55     180/  5/  6 1021.5R
KEWAUNEE LKSHORE 1200   49      CALM  /  4 1020.7R
ALGOMA MARINA    1208             CALM       N/A
TWO RIVERS CG    1206   53 48              1022.6      6   1
NORTHPORT PIER   1200   53     140/  2/  3 1021.3R
N MID LAKE BUOY  1250   40 36  210/  6/  8 1022.3R         1/ 4
SISTER BAY LKSHO 1233   62        CALM       N/A
STURGEON BAY CG  1200   46     180/  2     1019.2      6
CHAMBERS ISLAND  1200   61     260/  2/  5 1021.3R
MENOMINEE LKSHOR 1200   60     230/  4/  5 1021.5R
$$



USA.gov is the U.S. government's official web portal to all federal, state and local government web resources and services.